H1 CPF 1 SGF 2006 10 27 2 8001 etalon2 H2 8903903 4146 20026 2006 10 27 0 0 0 2006 10 29 23 45 0 900 1 1 0 0 0 H9 10 0 54035 0.00000 0 -9281190.777 13438758.345 -19582918.426 10 0 54035 900.00000 0 -11386217.914 14379960.410 -17720147.907 10 0 54035 1800.00000 0 -13192390.391 15360273.995 -15513016.857 10 0 54035 2700.00000 0 -14670969.188 16323787.833 -13004536.540 10 0 54035 3600.00000 0 -15805724.652 17211899.695 -10243531.629 10 0 54035 4500.00000 0 -16593357.845 17965872.335 -7283687.195 10 0 54035 5400.00000 0 -17043388.917 18529409.961 -4182504.385 10 0 54035 6300.00000 0 -17177518.863 18851147.487 -1000185.103 10 0 54035 7200.00000 0 -17028494.243 18886947.320 2201532.703 10 0 54035 8100.00000 0 -16638523.661 18601907.850 5360566.732 10 0 54035 9000.00000 0 -16057313.174 17972000.077 8415686.306 10 0 54035 9900.00000 0 -15339804.872 16985262.952 11307689.924 10 0 54035 10800.00000 0 -14543713.414 15642507.822 13980542.266 10 0 54035 11700.00000 0 -13726963.517 13957502.541 16382449.497 10 0 54035 12600.00000 0 -12945136.522 11956626.109 18466852.955 10 0 54035 13500.00000 0 -12249032.136 9678007.733 20193322.970 10 0 54035 14400.00000 0 -11682446.757 7170185.082 21528336.479 10 0 54035 15300.00000 0 -11280261.750 4490335.253 22445924.148 10 0 54035 16200.00000 0 -11066921.009 1702150.448 22928175.028 10 0 54035 17100.00000 0 -11055361.645 -1126555.183 22965589.215 10 0 54035 18000.00000 0 -11246443.357 -3926410.778 22557271.485 10 0 54035 18900.00000 0 -11628900.881 -6629121.134 21710961.581 10 0 54035 19800.00000 0 -12179822.924 -9170058.249 20442899.588 10 0 54035 20700.00000 0 -12865638.738 -11490706.064 18777527.699 10 0 54035 21600.00000 0 -13643572.279 -13540857.207 16747032.657 10 0 54035 22500.00000 0 -14463504.609 -15280470.188 14390736.154 10 0 54035 23400.00000 0 -15270166.722 -16681110.063 11754343.535 10 0 54035 24300.00000 0 -16005571.162 -17726911.673 8889064.185 10 0 54035 25200.00000 0 -16611580.507 -18415024.152 5850619.781 10 0 54035 26100.00000 0 -17032502.903 -18755518.277 2698159.357 10 0 54035 27000.00000 0 -17217604.245 -18770759.873 -506897.564 10 0 54035 27900.00000 0 -17123429.740 -18494275.171 -3702066.656 10 0 54035 28800.00000 0 -16715833.798 -17969157.211 -6825028.676 10 0 54035 29700.00000 0 -15971630.840 -17246080.937 -9814858.228 10 0 54035 30600.00000 0 -14879795.681 -16381011.583 -12613225.930 10 0 54035 31500.00000 0 -13442160.041 -15432705.558 -15165549.012 10 0 54035 32400.00000 0 -11673574.846 -14460110.530 -17422066.544 10 0 54035 33300.00000 0 -9601530.770 -13519775.834 -19338817.318 10 0 54035 34200.00000 0 -7265251.540 -12663384.649 -20878500.625 10 0 54035 35100.00000 0 -4714298.278 -11935512.609 -22011202.907 10 0 54035 36000.00000 0 -2006743.671 -11371707.823 -22714976.321 10 0 54035 36900.00000 0 793008.112 -10996973.721 -22976258.432 10 0 54035 37800.00000 0 3616664.087 -10824717.765 -22790125.685 10 0 54035 38700.00000 0 6394645.480 -10856209.586 -22160376.667 10 0 54035 39600.00000 0 9058743.284 -11080570.167 -21099444.569 10 0 54035 40500.00000 0 11544715.886 -11475290.954 -19628141.577 10 0 54035 41400.00000 0 13794721.132 -12007259.987 -17775241.065 10 0 54035 42300.00000 0 15759483.249 -12634250.090 -15576906.531 10 0 54035 43200.00000 0 17400105.584 -13306805.322 -13075979.030 10 0 54035 44100.00000 0 18689455.084 -13970445.863 -10321137.411 10 0 54035 45000.00000 0 19613063.303 -14568097.009 -7365948.060 10 0 54035 45900.00000 0 20169508.134 -15042639.899 -4267822.799 10 0 54035 46800.00000 0 20370261.960 -15339476.996 -1086905.225 10 0 54035 47700.00000 0 20239015.196 -15409003.331 2115092.938 10 0 54035 48600.00000 0 19810504.875 -15208880.195 5276083.080 10 0 54035 49500.00000 0 19128898.273 -14706016.371 8334795.863 10 0 54035 50400.00000 0 18245801.039 -13878172.746 11231959.572 10 0 54035 51300.00000 0 17217973.427 -12715123.507 13911438.525 10 0 54035 52200.00000 0 16104850.099 -11219325.391 16321310.350 10 0 54035 53100.00000 0 14965967.950 -9406065.417 18414862.178 10 0 54035 54000.00000 0 13858408.696 -7303080.498 20151487.436 10 0 54035 54900.00000 0 12834362.465 -4949663.775 21497466.846 10 0 54035 55800.00000 0 11938914.212 -2395292.380 22426619.279 10 0 54035 56700.00000 0 11208144.586 302167.745 22920810.418 10 0 54035 57600.00000 0 10667624.384 3078607.326 22970309.634 10 0 54035 58500.00000 0 10331365.758 5866083.171 22573987.981 10 0 54035 59400.00000 0 10201274.116 8595393.184 21739352.910 10 0 54035 60300.00000 0 10267124.620 11198711.629 20482418.073 10 0 54035 61200.00000 0 10507064.994 13612177.048 18827409.428 10 0 54035 62100.00000 0 10888624.576 15778325.852 16806311.876 10 0 54035 63000.00000 0 11370188.831 17648270.428 14458263.603 10 0 54035 63900.00000 0 11902877.579 19183531.373 11828808.422 10 0 54035 64800.00000 0 12432748.622 20357446.614 8969019.395 10 0 54035 65700.00000 0 12903234.565 21156097.457 5934509.865 10 0 54035 66600.00000 0 13257708.571 21578712.554 2784350.773 10 0 54035 67500.00000 0 13442070.056 21637531.895 -420084.550 10 0 54035 68400.00000 0 13407240.100 21357135.802 -3616325.022 10 0 54035 69300.00000 0 13111458.029 20773267.850 -6742031.326 10 0 54035 70200.00000 0 12522280.471 19931201.444 -9736224.981 10 0 54035 71100.00000 0 11618196.717 18883719.488 -12540491.519 10 0 54035 72000.00000 0 10389789.003 17688794.302 -15100132.754 10 0 54035 72900.00000 0 8840387.586 16407066.771 -17365244.324 10 0 54035 73800.00000 0 6986192.006 15099232.309 -19291696.485 10 0 54035 74700.00000 0 4855851.519 13823445.834 -20841998.292 10 0 54035 75600.00000 0 2489522.338 12632855.794 -21986028.095 10 0 54035 76500.00000 0 -62558.739 11573371.665 -22701616.277 10 0 54035 77400.00000 0 -2741925.284 10681759.332 -22974969.375 10 0 54035 78300.00000 0 -5484078.804 9984143.749 -22800928.104 10 0 54035 79200.00000 0 -8220940.857 9494981.072 -22183055.261 10 0 54035 80100.00000 0 -10883457.993 9216542.109 -21133552.777 10 0 54035 81000.00000 0 -13404250.846 9138927.002 -19673010.612 10 0 54035 81900.00000 0 -15720197.377 9240609.187 -17829993.259 10 0 54035 82800.00000 0 -17774843.926 9489483.483 -15640472.715 10 0 54035 83700.00000 0 -19520544.527 9844372.642 -13147119.619 10 0 54035 84600.00000 0 -20920240.514 10256928.124 -10398466.762 10 0 54035 85500.00000 0 -21948808.289 10673843.027 -7447961.609 10 0 54036 0.00000 0 -22593920.440 11039283.663 -4352926.444 10 0 54036 900.00000 0 -22856386.292 11297436.464 -1173446.350 10 0 54036 1800.00000 0 -22749958.681 11395064.042 2028793.397 10 0 54036 2700.00000 0 -22300617.977 11283959.968 5191698.178 10 0 54036 3600.00000 0 -21545363.137 10923202.059 8253960.398 10 0 54036 4500.00000 0 -20530562.421 10281107.324 11156238.672 10 0 54036 5400.00000 0 -19309933.039 9336807.211 13842297.645 10 0 54036 6300.00000 0 -17942234.196 8081377.333 16260087.232 10 0 54036 7200.00000 0 -16488770.446 6518472.732 18362741.274 10 0 54036 8100.00000 0 -15010808.906 4664441.870 20109477.257 10 0 54036 9000.00000 0 -13567017.429 2547913.665 21466380.645 10 0 54036 9900.00000 0 -12211030.338 208872.262 22407059.416 10 0 54036 10800.00000 0 -10989242.241 -2302743.320 22913156.692 10 0 54036 11700.00000 0 -9938921.477 -4928858.425 22974711.817 10 0 54036 12600.00000 0 -9086721.635 -7605428.136 22590362.688 10 0 54036 13500.00000 0 -8447653.025 -10264860.633 21767384.899 10 0 54036 14400.00000 0 -8024557.634 -12838599.680 20521565.960 10 0 54036 15300.00000 0 -7808109.746 -15259760.934 18876915.761 10 0 54036 16200.00000 0 -7777342.916 -17465713.267 16865217.389 10 0 54036 17100.00000 0 -7900682.534 -19400498.015 14525425.442 10 0 54036 18000.00000 0 -8137440.595 -21016985.687 11902922.014 10 0 54036 18900.00000 0 -8439710.521 -22278679.388 9048643.579 10 0 54036 19800.00000 0 -8754582.955 -23161088.542 6018094.821 10 0 54036 20700.00000 0 -9026587.619 -23652614.738 2870268.202 10 0 54036 21600.00000 0 -9200257.656 -23754911.372 -333509.579 10 0 54036 22500.00000 0 -9222707.316 -23482700.936 -3530781.214 10 0 54036 23400.00000 0 -9046110.909 -22863057.657 -6659187.960 10 0 54036 24300.00000 0 -8629976.663 -21934185.458 -9657699.050 10 0 54036 25200.00000 0 -7943117.661 -20743742.985 -12467815.884 10 0 54036 26100.00000 0 -6965233.160 -19346787.626 -15034725.964 10 0 54036 27000.00000 0 -5688032.219 -17803426.144 -17308382.717 10 0 54036 27900.00000 0 -4115851.040 -16176272.053 -19244489.122 10 0 54036 28800.00000 0 -2265735.740 -14527818.566 -20805365.239 10 0 54036 29700.00000 0 -166986.911 -12917838.461 -21960682.472 10 0 54036 30600.00000 0 2139815.119 -11400920.945 -22688050.438 10 0 54036 31500.00000 0 4604264.345 -10024249.433 -22973445.468 10 0 54036 32400.00000 0 7168001.076 -8825713.041 -22811473.214 10 0 54036 33300.00000 0 9766923.344 -7832430.414 -22205461.177 10 0 54036 34200.00000 0 12333645.827 -7059746.342 -21167380.397 10 0 54036 35100.00000 0 14800103.416 -6510741.451 -19717598.847 10 0 54036 36000.00000 0 17100191.040 -6176274.014 -17884472.231 10 0 54036 36900.00000 0 19172330.560 -6035549.452 -15703780.979 10 0 54036 37800.00000 0 20961858.292 -6057191.707 -13218025.020 10 0 54036 38700.00000 0 22423134.556 -6200770.140 -10475590.536 10 0 54036 39600.00000 0 23521288.776 -6418715.181 -7529805.241 10 0 54036 40500.00000 0 24233528.589 -6658541.168 -4437900.764 10 0 54036 41400.00000 0 24549959.643 -6865282.499 -1259902.324 10 0 54036 42300.00000 0 24473883.652 -6984038.707 1942532.780 10 0 54036 43200.00000 0 24021563.492 -6962521.491 5107305.521 10 0 54036 44100.00000 0 23221466.204 -6753497.012 8173071.642 10 0 54036 45000.00000 0 22113016.827 -6317019.384 11080421.586 10 0 54036 45900.00000 0 20744915.583 -5622362.146 13773021.663 10 0 54036 46800.00000 0 19173088.799 -4649566.956 16198695.206 10 0 54036 47700.00000 0 17458359.361 -3390543.032 18310423.681 10 0 54036 48600.00000 0 15663933.259 -1849671.257 20067249.327 10 0 54036 49500.00000 0 13852806.258 -43886.974 21435062.827 10 0 54036 50400.00000 0 12085198.176 1997764.408 22387261.540 10 0 54036 51300.00000 0 10416120.511 4235081.717 22905266.105 10 0 54036 52200.00000 0 8893178.015 6618134.418 22978885.714 10 0 54036 53100.00000 0 7554695.083 9089104.685 22606524.789 10 0 54036 54000.00000 0 6428244.494 11584470.357 21795226.558 10 0 54036 54900.00000 0 5529640.076 14037440.070 20560551.719 10 0 54036 55800.00000 0 4862435.111 16380541.411 18926293.270 10 0 54036 56700.00000 0 4417947.911 18548255.414 16924031.566 10 0 54036 57600.00000 0 4175814.561 20479588.363 14592536.624 10 0 54036 58500.00000 0 4105045.405 22120473.986 11977027.793 10 0 54036 59400.00000 0 4165541.545 23425905.141 9128303.923 10 0 54036 60300.00000 0 4310008.297 24361704.912 6101760.007 10 0 54036 61200.00000 0 4486183.527 24905861.914 2956309.026 10 0 54036 62100.00000 0 4639286.499 25049372.439 -246769.909 10 0 54036 63000.00000 0 4714583.187 24796552.792 -3445034.138 10 0 54036 63900.00000 0 4659956.551 24164807.996 -6576106.249 10 0 54036 64800.00000 0 4428371.678 23183866.029 -9578903.795 10 0 54036 65700.00000 0 3980129.880 21894509.684 -12394844.484 10 0 54036 66600.00000 0 3284812.935 20346860.158 -14969001.781 10 0 54036 67500.00000 0 2322833.937 18598285.362 -17251187.031 10 0 54036 68400.00000 0 1086527.959 16711021.976 -19196935.970 10 0 54036 69300.00000 0 -419265.995 14749612.685 -20768379.637 10 0 54036 70200.00000 0 -2177156.553 12778267.208 -21934982.457 10 0 54036 71100.00000 0 -4157687.460 10858258.777 -22674133.250 10 0 54036 72000.00000 0 -6320341.572 9045465.725 -22971578.124 10 0 54036 72900.00000 0 -8615018.754 7388160.990 -22821687.621 10 0 54036 73800.00000 0 -10983925.584 5925141.671 -22227553.849 10 0 54036 74700.00000 0 -13363798.190 4684275.533 -21200916.755 10 0 54036 75600.00000 0 -15688364.872 3681523.597 -19761921.996 10 0 54036 76500.00000 0 -17890945.765 2920478.171 -17938716.042 10 0 54036 77400.00000 0 -19907081.503 2392432.805 -15766887.202 10 0 54036 78300.00000 0 -21677081.479 2076979.075 -13288764.098 10 0 54036 79200.00000 0 -23148386.060 1943103.533 -10552585.696 10 0 54036 80100.00000 0 -24277645.152 1950735.722 -7611559.387 10 0 54036 81000.00000 0 -25032427.315 2052680.849 -4522825.632 10 0 54036 81900.00000 0 -25392489.193 2196855.107 -1346349.316 10 0 54036 82800.00000 0 -25350553.493 2328727.359 1856240.685 10 0 54036 83700.00000 0 -24912564.148 2393864.300 5022841.401 10 0 54036 84600.00000 0 -24097408.945 2340472.286 8092072.426 10 0 54036 85500.00000 0 -22936122.139 2121827.404 11004456.609 10 0 54037 0.00000 0 -21470613.821 1698337.890 13703561.370 10 0 54037 900.00000 0 -19751896.500 1040089.266 16137087.316 10 0 54037 1800.00000 0 -17838100.029 127391.710 18257862.556 10 0 54037 2700.00000 0 -15792055.503 -1047482.538 20024754.704 10 0 54037 3600.00000 0 -13678782.000 -2479893.359 21403460.162 10 0 54037 4500.00000 0 -11562883.448 -4152780.098 22367166.001 10 0 54037 5400.00000 0 -9505979.235 -6037134.870 22897070.531 10 0 54037 6300.00000 0 -7564274.484 -8092983.898 22982752.766 10 0 54037 7200.00000 0 -5786369.975 -10270838.809 22622383.482 10 0 54037 8100.00000 0 -4211402.051 -12513559.246 21822773.252 10 0 54037 9000.00000 0 -2867589.858 -14758551.454 20599255.578 10 0 54037 9900.00000 0 -1771249.864 -16940213.487 18975406.142 10 0 54037 10800.00000 0 -926319.015 -18992526.410 16982602.102 10 0 54037 11700.00000 0 -324407.301 -20851684.449 14659428.421 10 0 54037 12600.00000 0 54622.865 -22458654.707 12050941.233 10 0 54037 13500.00000 0 241574.181 -23761559.061 9207801.319 10 0 54037 14400.00000 0 276373.602 -24717777.790 6185293.570 10 0 54037 15300.00000 0 206139.334 -25295685.481 3042251.125 10 0 54037 16200.00000 0 82937.382 -25475944.918 -160094.814 10 0 54037 17100.00000 0 -38677.209 -25252303.087 -3359316.534 10 0 54037 18000.00000 0 -104227.614 -24631854.502 -6493018.270 10 0 54037 18900.00000 0 -61881.139 -23634759.818 -9500066.270 10 0 54037 19800.00000 0 135096.284 -22293431.023 -12321795.006 10 0 54037 20700.00000 0 526104.349 -20651217.500 -14903164.464 10 0 54037 21600.00000 0 1141287.283 -18760648.653 -17193844.550 10 0 54037 22500.00000 0 2000009.988 -16681307.780 -19149204.451 10 0 54037 23400.00000 0 3109798.336 -14477427.508 -20731186.887 10 0 54037 24300.00000 0 4465788.732 -12215308.687 -21909049.960 10 0 54037 25200.00000 0 6050710.548 -9960671.887 -22659962.270 10 0 54037 26100.00000 0 7835403.308 -7776052.876 -22969440.195 10 0 54037 27000.00000 0 9779846.365 -5718351.086 -22831619.563 10 0 54037 27900.00000 0 11834657.717 -3836633.398 -22249357.416 10 0 54037 28800.00000 0 13942999.333 -2170283.695 -21234162.881 10 0 54037 29700.00000 0 16042808.664 -747574.076 -19805959.523 10 0 54037 30600.00000 0 18069262.935 415284.074 -17992684.733 10 0 54037 31500.00000 0 19957373.313 1314572.374 -15829734.753 10 0 54037 32400.00000 0 21644600.550 1958965.220 -13359266.799 10 0 54037 33300.00000 0 23073383.319 2368903.111 -10629372.323 10 0 54037 34200.00000 0 24193474.046 2575469.113 -7693137.855 10 0 54037 35100.00000 0 24963985.375 2618817.311 -4607611.910 10 0 54037 36000.00000 0 25355062.660 2546220.361 -1432698.041 10 0 54037 36900.00000 0 25349113.352 2409820.834 1770004.461 10 0 54037 37800.00000 0 24941542.858 2264181.337 4938389.944 10 0 54037 38700.00000 0 24140966.988 2163736.433 8011043.136 10 0 54037 39600.00000 0 22968892.606 2160255.195 10928420.536 10 0 54037 40500.00000 0 21458880.319 2300420.494 13633994.218 10 0 54037 41400.00000 0 19655224.224 2623626.245 16075336.751 10 0 54037 42300.00000 0 17611203.456 3160086.370 18205127.090 10 0 54037 43200.00000 0 15386977.827 3929334.323 19982058.966 10 0 54037 44100.00000 0 13047214.324 4939176.196 21371635.135 10 0 54037 45000.00000 0 10658541.950 6185143.061 22346832.911 10 0 54037 45900.00000 0 8286939.450 7650466.074 22888628.684 10 0 54037 46800.00000 0 5995163.331 9306576.901 22986371.562 10 0 54037 47700.00000 0 3840321.572 11114115.150 22637998.770 10 0 54037 48600.00000 0 1871692.883 13024402.471 21850088.120 10 0 54037 49500.00000 0 128881.776 14981324.068 20637745.622 10 0 54037 50400.00000 0 -1359614.675 16923541.399 19024329.131 10 0 54037 51300.00000 0 -2577368.621 18786945.131 17041011.937 10 0 54037 52200.00000 0 -3520470.994 20507247.268 14726193.139 10 0 54037 53100.00000 0 -4197450.540 22022604.579 12124764.760 10 0 54037 54000.00000 0 -4628665.132 23276163.420 9287248.558 10 0 54037 54900.00000 0 -4845190.104 24218418.788 6268818.350 10 0 54037 55800.00000 0 -4887251.578 24809287.206 3128226.451 10 0 54037 56700.00000 0 -4802270.796 25019804.892 -73344.813 10 0 54037 57600.00000 0 -4642602.216 24833378.251 -3273483.623 10 0 54037 58500.00000 0 -4463063.582 24246532.144 -6409776.746 10 0 54037 59400.00000 0 -4318363.489 23269123.178 -9421039.932 10 0 54037 60300.00000 0 -4260536.666 21924008.113 -12248525.127 10 0 54037 61200.00000 0 -4336498.859 20246180.564 -14837079.423 10 0 54037 62100.00000 0 -4585826.091 18281412.392 -17136231.767 10 0 54037 63000.00000 0 -5038853.602 16084457.324 -19101185.176 10 0 54037 63900.00000 0 -5715177.389 13716892.719 -20693694.363 10 0 54037 64800.00000 0 -6622622.050 11244690.892 -21882811.363 10 0 54037 65700.00000 0 -7756718.927 8735622.669 -22645484.782 10 0 54037 66600.00000 0 -9100717.601 6256602.127 -22967001.426 10 0 54037 67500.00000 0 -10626129.697 3871083.826 -22841262.500 10 0 54037 68400.00000 0 -12293781.902 1636621.231 -22270889.945 10 0 54037 69300.00000 0 -14055333.974 -397312.918 -21267161.865 10 0 54037 70200.00000 0 -15855197.346 -2191154.484 -19849779.351 10 0 54037 71100.00000 0 -17632773.702 -3716649.123 -18046470.141 10 0 54037 72000.00000 0 -19324919.542 -4957771.049 -15892437.668 10 0 54037 72900.00000 0 -20868533.327 -5911123.163 -13429666.877 10 0 54037 73800.00000 0 -22203157.248 -6585803.745 -10706100.760 10 0 54037 74700.00000 0 -23273484.745 -7002748.699 -7774704.020 10 0 54037 75600.00000 0 -24031669.316 -7193578.879 -4692432.254 10 0 54037 76500.00000 0 -24439338.808 -7199002.212 -1519126.731 10 0 54037 77400.00000 0 -24469231.150 -7066840.598 1683643.791 10 0 54037 78300.00000 0 -24106383.924 -6849765.242 4853771.924 10 0 54037 79200.00000 0 -23348828.800 -6602835.833 7929808.487 10 0 54037 80100.00000 0 -22207761.884 -6380948.830 10852144.585 10 0 54037 81000.00000 0 -20707183.306 -6236301.656 13564156.687 10 0 54037 81900.00000 0 -18883021.194 -6215978.833 16013293.352 10 0 54037 82800.00000 0 -16781775.868 -6359762.529 18152083.465 10 0 54037 83700.00000 0 -14458740.237 -6698258.700 19939047.425 10 0 54037 84600.00000 0 -11975869.550 -7251417.203 21339494.644 10 0 54037 85500.00000 0 -9399387.504 -8027509.286 22326192.695 99